Regional Weather Roundup
Issued by NWS

Home | Current Version | Previous Version | Graphics & Text | Print | Product List | Glossary Off
Versions: 1 2 3 4 5 6 7 8 9 10 11 12 13 14 15 16 17 18 19 20 21 22 23 24 25 26 27 28 29 30 31 32 33 34 35 36 37 38 39 40 41 42 43 44 45 46 47 48 49 50

000
ASUS43 KMPX 110601
RWRMN
WEATHER ROUNDUP FOR MINNESOTA
NATIONAL WEATHER SERVICE TWIN CITIES/CHANHASSEN MN
1200 AM CST MON DEC 11 2017


NOTE: "FAIR" INDICATES FEW OR NO CLOUDS BELOW 12,000 FEET WITH NO
SIGNIFICANT WEATHER AND/OR OBSTRUCTIONS TO VISIBILITY. N/A MEANS
CURRENT SKY AND/OR WEATHER CONDITIONS ARE NOT AVAILABLE.

MNZ060>063-068>070-110700-
   Twin Cities Metro

CITY           SKY/WX    TMP DP  RH WIND       PRES   REMARKS
TWIN CITIES    CLOUDY    25  23  92 S5        29.93F WCI  19
6HR MIN TEMP:  23; 6HR MAX TEMP:  27;

ST PAUL        CLOUDY    24  22  91 SE8       29.95F FOG     WCI  15
CRYSTAL        CLOUDY    26  20  77 S5        29.92F WCI  20
BLAINE         CLOUDY    27  25  93 S6        29.92F WCI  20
LAKEVILLE        N/A     25  23  93 CALM      29.94F
EDEN PRAIRIE   CLOUDY    26  22  84 S3        29.92F
6HR MIN TEMP:  22; 6HR MAX TEMP:  27;

SOUTH ST PAUL  CLOUDY    24  22  91 SE3       29.94F FOG
LAKE ELMO      FAIR      27  23  86 S6        29.94F WCI  20
$$
MNZ001>005-007-008-013>017-022>024-027-028-110700-
   Northwest Minnesota

CITY           SKY/WX    TMP DP  RH WIND       PRES   REMARKS
BEMIDJI        LGT SNOW  21  19  93 S6        29.78F VSB 3/4 WCI  13
HALLOCK        CLOUDY    27  25  93 S12       29.70F WCI  16
ROSEAU         LGT SNOW  21  18  86 S10       29.72F WCI  10
WARROAD        LGT SNOW  19  16  86 S9        29.73F WCI   9
CROOKSTON      MOCLDY    27  27 100 S13       29.73F WCI  16
FOSSTON        CLOUDY    25  23  93 S14       29.76F WCI  13
DETROIT LAKES  CLOUDY    30  28  93 SW9       29.80F WCI  22
MOORHEAD       CLOUDY    28  25  86 S12       29.78F WCI  18
PARK RAPIDS    LGT SNOW  23  20  88 S7        29.79F FOG     WCI  15
MAHNOMEN       CLOUDY    26  25  95 S13       29.76F WCI  15
$$
MNZ006-009>011-018-025>026-110700-
   North Central Minnesota

CITY           SKY/WX    TMP DP  RH WIND       PRES   REMARKS
BAUDETTE       LGT SNOW  19  17  92 SE9       29.75F VSB 1   WCI   8
FLAG ISLAND    LGT SNOW  18  16  93 SE16      29.73F WCI   3
INTL FALLS     SNOW      15  10  80 SE6       29.81F VSB 1/2 WCI   6
6HR MIN TEMP:   2; 6HR MAX TEMP:  15; 6HR PCP: TRACE;

WASKISH        LGT SNOW  19  19 100 SE6       29.78F WCI  11
BIG FORK       LGT SNOW  18  16  93 SE5       29.82F WCI  11
GRAND RAPIDS   LGT SNOW  19  16  88 SE8       29.85F FOG     WCI   9
ORR            CLOUDY    12   9  85 SE5       29.80F WCI   4
COOK           CLOUDY    10   9  92 E3        29.86F
WALKER         LGT SNOW  21  19  93 S5        29.80F VSB 3/4 WCI  15
$$
MNZ012-019>021-037-110700-
   Northeast Minnesota

CITY           SKY/WX    TMP DP  RH WIND       PRES   REMARKS
DULUTH         CLOUDY    15  12  88 S5        29.90S WCI   8
6HR MIN TEMP:   9; 6HR MAX TEMP:  15;

ELY            CLOUDY     9   5  85 S5        29.87F WCI   0
HIBBING        CLOUDY    13  10  88 SE7       29.86F WCI   3
EVELETH        CLOUDY     9   3  78 CALM      29.90S
DULUTH HARBOR  CLOUDY    18  12  79 CALM      29.97S
TWO HARBORS    CLOUDY    12   7  79 CALM      29.91S
G MARAIS ARPRT CLOUDY    -2  -8  78 CALM      29.87F
$$
MNZ029>031-032-039>041-046>048-054>057-064-110700-
   West Central Minnesota

CITY           SKY/WX    TMP DP  RH WIND       PRES   REMARKS
FERGUS FALLS   CLOUDY    28  28 100 S8        29.85F WCI  20
MORRIS         CLOUDY    32  25  74 S8        29.84F WCI  25
ALEXANDRIA     LGT SNOW  28  26  92 SW12      29.86F FOG     WCI  18
ELBOW LAKE     CLOUDY    28  26  91 S8        29.84F WCI  20
WADENA         LGT SNOW  25  25 100 S8        29.81F WCI  16
GLENWOOD       FLURRIES  28  27  93 S3        29.86F
BENSON         CLOUDY    32  27  80 S7        29.87F WCI  26
ORTONVILLE     CLOUDY    32  27  80 CALM      29.85F
MADISON        CLOUDY    36  30  80 SW5       29.86F
WILLMAR        FAIR      32  27  80 SE6       29.88F WCI  26
$$
MNZ033>034-036-042>043-049>051-058-059-110700-
   Central Minnesota

CITY           SKY/WX    TMP DP  RH WIND       PRES   REMARKS
ST CLOUD       LGT SNOW  25  23  92 S6        29.91S VSB 3/4 WCI  18
6HR MIN TEMP:  17; 6HR MAX TEMP:  25; 6HR PCP:  0.01;

SAUK CENTRE    LGT SNOW  27  26  96 S8        29.87F WCI  18
PAYNESVILLE    LGT SNOW  28  28  99 S3        29.89F
AITKIN         LGT SNOW  21  19  93 S5        29.85F WCI  15
PINE RIVER     LGT SNOW  21  19  93 S5        29.86F WCI  15
BRAINERD       LGT SNOW  24  21  88 S8        29.86F VSB 3/4 WCI  15
STAPLES        LGT SNOW  23  21  93 S8        29.83F WCI  14
LONG PRAIRIE   LGT SNOW  27  23  86 SE7       29.86F VSB 3/4 WCI  19
LITTLE FALLS   LGT SNOW  25  21  86 S3        29.89S VSB 1
LITCHFIELD     MIX PCPN  28  28 100 CALM      29.91S
BUFFALO        LGT SNOW  26  22  86 S3        29.93S
MAPLE LAKE     LGT SNOW  27  25  91 S3        29.92S VSB 1
HUTCHINSON     CLOUDY    30  27  88 CALM      29.92F
$$
MNZ037-044-045-052-053-110700-
   East Central Minnesota

CITY           SKY/WX    TMP DP  RH WIND       PRES   REMARKS
PRINCETON      CLOUDY    27  21  80 CALM      29.91S
MORA           CLOUDY    23  19  86 SE5       29.92F WCI  17
CAMBRIDGE      CLOUDY    27  19  74 SE3       29.92F
RUSH CITY      CLOUDY    23  19  87 S5        29.92F WCI  16
MOOSE LAKE     CLOUDY    19  16  86 CALM      29.89F
HINCKLEY       CLOUDY    23  19  86 SE5       29.91F WCI  17
CLOQUET        CLOUDY    16  12  86 CALM      29.90F
MCGREGOR       CLOUDY    23  19  86 S8        29.87F WCI  14
$$
MNZ071>073-080-081-089-090-097-098-110700-
   Southwest Minnesota

CITY           SKY/WX    TMP DP  RH WIND       PRES   REMARKS
MONTEVIDEO     CLOUDY    34  27  75 SW5       29.87F WCI  30
GRANITE FALLS  CLOUDY    34  28  80 S8        29.90F WCI  27
CANBY          CLOUDY    38  30  73 SW5       29.89S
MARSHALL       CLOUDY    36  28  73 SW10      29.88F
REDWOOD FALLS  CLOUDY    33  26  75 S9        29.89F WCI  25
OLIVIA         CLOUDY    34  28  80 S5        29.88F WCI  30
PIPESTONE      CLOUDY    32  27  80 W5        29.89F WCI  27
WINDOM           N/A     32  19  59 S3        29.92F
WORTHINGTON    CLOUDY    34  27  75 SW10      29.92F WCI  26
JACKSON        PTCLDY    32  28  86 MISG      29.94S
TRACY          CLOUDY    36  30  78 SW7       29.88F
$$
MNZ065>067-074>077-082>085-091>093-110700-
   South Central Minnesota

CITY           SKY/WX    TMP DP  RH WIND       PRES   REMARKS
MANKATO        CLOUDY    29  26  89 S5        29.93F WCI  24
NEW ULM        CLOUDY    30  27  86 S7        29.91F WCI  23
ST JAMES       CLOUDY    30  27  86 S7        29.93F WCI  23
FAIRMONT       CLOUDY    30  27  88 S7        29.95F WCI  23
GLENCOE        FLURRIES  29  27  91 CALM      29.91F
FARIBAULT      CLOUDY    27  23  86 S6        29.94F WCI  20
WASECA         CLOUDY    28  25  86 SE6       29.95F WCI  22
ALBERT LEA     CLOUDY    28  23  80 S5        29.96F WCI  23
$$
MNZ078>079-086>088-094>096-110700-
   Southeast Minnesota

CITY           SKY/WX    TMP DP  RH WIND       PRES   REMARKS
ROCHESTER      CLOUDY    23  21  92 S8        29.95F WCI  14
6HR MIN TEMP:  20; 6HR MAX TEMP:  27;

RED WING       MOCLDY    23  19  86 CALM      29.96F
STANTON        MOCLDY    27  23  85 S6        29.94F WCI  20
DODGE CENTER   CLOUDY    25  21  86 S8        29.94F WCI  16
WINONA         CLOUDY    30  23  74 SE3       30.01F
AUSTIN         CLOUDY    25  21  86 S3        29.97F
PRESTON        CLOUDY    23  20  89 S6        29.99S WCI  16
$$
ABBREVIATIONS USED IN REMARKS
   TC - TEMPERATURES IN CELSIUS
  WCI - WIND CHILL INDEX
   HX - HEAT INDEX
  VSB - VISIBILITY
$$




USA.gov is the U.S. government's official web portal to all federal, state and local government web resources and services.